Weather History for Belize, Belize

Change the Weather History Date:

Tuesday, May 14, 2013

  Actual Average Record
Temperature  
Mean Temperature 80 °F -  
Max Temperature 88 °F 90 °F 89 °F (1998)
Min Temperature 72 °F 76 °F 72 °F (2013)
Cooling Degree Days 15    
Growing Degree Days 30 (Base 50)    
Moisture  
Dew Point 73 °F    
Average Humidity 71    
Maximum Humidity 94    
Minimum Humidity 54    
Precipitation  
Precipitation 0.00 in 0.23 in - ()
Sea Level Pressure  
Sea Level Pressure 30.04 in    
Wind  
Wind Speed 5 mph ()    
Max Wind Speed 14 mph    
Max Gust Speed -    
Visibility 8.8 miles    
Events      
Averages and records for this station are not official NWS values.
T = Trace of Precipitation, MM = Missing Value Source: Averaged Metar Reports

Daily Weather History Graph

Daily Weather History Graph

Search for Another Location

Airport:

Trip Planner

Search our weather history database for the weather conditions in past years. The results will help you decide how hot, cold, wet, or windy it might be!

Date:

Astronomy

May. 14, 2013 Rise Set
Actual Time 5:21 AM CST 6:18 PM CST
Civil Twilight 4:58 AM CST 6:41 PM CST
Nautical Twilight 4:30 AM CST 7:08 PM CST
Astronomical Twilight 4:02 AM CST 7:36 PM CST
Moon 8:59 AM CST (5/14) 10:09 PM CST (5/14)
Length of Visible Light 13h 43m
Length of Day
12h 56m
Waxing Crescent, 19% of the Moon is Illuminated
May 14
Waxing Crescent
May 17
First Quarter
May 24
Full
May 31
Last Quarter
Jun 8
New

Hourly Weather History & Observations

Time (CST) Temp. Heat Index Dew Point Humidity Pressure Visibility Wind Dir Wind Speed Gust Speed Precip Events Conditions
12:00 AM 77 °F - 74 °F 87% 30.07 in 12 mi Calm Calm - -   Scattered Clouds
3:00 AM 73 °F - 71 °F 93% 30.02 in 12 mi Calm Calm - -   Scattered Clouds
5:00 AM 73.4 °F - 71.6 °F 94% 30.01 in 6.2 mi Calm Calm - N/A   Mostly Cloudy
6:00 AM 73 °F - 71 °F 93% 30.04 in 12 mi Calm Calm - -   Scattered Clouds
6:00 AM 73.4 °F - 71.6 °F 94% 30.04 in 6.2 mi Calm Calm - N/A   Mostly Cloudy
7:00 AM 82.4 °F 87.2 °F 71.6 °F 70% 30.04 in 6.2 mi ENE 11.5 mph - N/A   Scattered Clouds
8:00 AM 84.2 °F 90.9 °F 73.4 °F 70% 30.06 in 6.2 mi ENE 11.5 mph - N/A   Mostly Cloudy
9:00 AM 85 °F - 72 °F 58% 30.08 in 14 mi ENE 10.4 mph - -   Partly Cloudy
9:00 AM 84.2 °F 90.9 °F 73.4 °F 70% 30.07 in 6.2 mi ENE 10.4 mph - N/A   Mostly Cloudy
10:00 AM 86.0 °F 93.4 °F 73.4 °F 66% 30.07 in 6.2 mi ENE 10.4 mph - N/A   Mostly Cloudy
12:00 PM 87 °F - 73 °F 56% 30.05 in 14 mi ENE 13.8 mph - -   Partly Cloudy
1:00 PM 87.8 °F 93.8 °F 71.6 °F 58% 30.04 in 6.2 mi ENE 13.8 mph - N/A   Mostly Cloudy
2:00 PM 87.8 °F 95.6 °F 73.4 °F 62% 30.02 in 6.2 mi East 12.7 mph - N/A   Mostly Cloudy
3:00 PM 87 °F - 73 °F 54% 30.03 in 14 mi ENE 11.5 mph - -   Partly Cloudy
3:00 PM 87.8 °F 95.6 °F 73.4 °F 62% 30.02 in 6.2 mi ENE 11.5 mph - N/A   Scattered Clouds
4:00 PM 86.0 °F 93.4 °F 73.4 °F 66% 30.02 in 6.2 mi East 12.7 mph - N/A   Scattered Clouds
5:00 PM 86.0 °F 91.8 °F 71.6 °F 62% 30.02 in 6.2 mi ENE 12.7 mph - N/A   Scattered Clouds
6:00 PM 84 °F - 73 °F 62% 30.04 in 14 mi East 8.1 mph - -   Partly Cloudy
6:00 PM 84.2 °F 90.9 °F 73.4 °F 70% 30.03 in 6.2 mi East 8.1 mph - N/A   Mostly Cloudy
7:00 PM 82.4 °F 88.2 °F 73.4 °F 74% 30.04 in 6.2 mi East 5.8 mph - N/A   Mostly Cloudy
9:00 PM 80 °F - 74 °F 76% 30.07 in 12 mi ESE 3.5 mph - -   Scattered Clouds